Location: Unspecified
(47.9110°N, 14.3980°E)
Time: 14:54:05
(UTC+00:00)

SWARM A - Pass Details

Date: 06 August 2020
Orbit: 430 x 434 km, 87.4° (Epoch: 18 September)

Event Time Altitude Azimuth Distance (km) Brightness Sun altitude
Rises 21:05:48 0° 359° (N) 2,427 9.0 -20.1°
Reaches altitude 10° 21:07:51 10° 1° (N) 1,552 7.8 -20.3°
Enters shadow 21:11:00 71° 47° (NE) 464 4.3 -20.6°
